Weather History for KARB - April, 2013

Change the Weather History Date:

Monday, April 8, 2013

  Actual Average Record
Temperature  
Mean Temperature 50 °F -  
Max Temperature 66 °F 54 °F 77 °F (2001)
Min Temperature 35 °F 32 °F 23 °F (2007)
Degree Days  
Heating Degree Days 14    
Moisture  
Dew Point 39 °F    
Average Humidity 77    
Maximum Humidity 89    
Minimum Humidity 56    
Precipitation  
Precipitation 0.18 in - - ()
Sea Level Pressure  
Sea Level Pressure 29.90 in    
Wind  
Wind Speed 6 mph (ESE)    
Max Wind Speed 24 mph    
Max Gust Speed 36 mph    
Visibility 7 miles    
Events Rain    
Averages and records for this station are not official NWS values.
T = Trace of Precipitation, MM = Missing Value Source: NWS Daily Summary

Daily Weather History Graph

Daily Weather History Graph

Search for Another Location

Airport or City:

Trip Planner

Search our weather history database for the weather conditions in past years. The results will help you decide how hot, cold, wet, or windy it might be!

Date:

Astronomy

Apr. 08, 2013 Rise Set
Actual Time 7:05 AM EDT 8:08 PM EDT
Civil Twilight 6:36 AM EDT 8:37 PM EDT
Nautical Twilight 6:02 AM EDT 9:11 PM EDT
Astronomical Twilight 5:26 AM EDT 9:47 PM EDT
Moon 5:56 AM EDT (4/8) 6:41 PM EDT (4/8)
Length of Visible Light 14h 00m
Length of Day
13h 03m
Waning Crescent, 3% of the Moon is Illuminated
Apr 8
Waning Crescent
Apr 10
New
Apr 18
First Quarter
Apr 25
Full
May 2
Last Quarter

Hourly Weather History & Observations

Time (EDT) Temp. Windchill Dew Point Humidity Pressure Visibility Wind Dir Wind Speed Gust Speed Precip Events Conditions
12:30 AM 39.2 °F 37.0 °F 30.2 °F 70% 30.03 in 2.5 mi NE 3.5 mph - N/A   Haze
12:38 AM 39.2 °F 37.0 °F 30.2 °F 70% 30.04 in 10.0 mi NE 3.5 mph - N/A   Clear
12:53 AM 35.1 °F - 30.0 °F 82% 30.06 in 10.0 mi Calm Calm - N/A   Clear
1:53 AM 37.9 °F 35.5 °F 30.0 °F 73% 30.05 in 10.0 mi East 3.5 mph - N/A   Clear
2:53 AM 37.9 °F 35.5 °F 30.0 °F 73% 30.04 in 10.0 mi East 3.5 mph - N/A   Clear
3:53 AM 37.0 °F 33.3 °F 30.0 °F 76% 30.03 in 10.0 mi ESE 4.6 mph - N/A   Clear
4:53 AM 36.0 °F 32.1 °F 30.9 °F 82% 30.03 in 10.0 mi ESE 4.6 mph - N/A   Clear
5:53 AM 36.0 °F 32.1 °F 30.0 °F 79% 30.00 in 10.0 mi ENE 4.6 mph - N/A   Clear
6:53 AM 37.0 °F 32.4 °F 32.0 °F 82% 29.99 in 10.0 mi East 5.8 mph - N/A   Clear
7:53 AM 39.0 °F 34.0 °F 33.1 °F 79% 29.98 in 10.0 mi ESE 6.9 mph - N/A   Clear
8:53 AM 42.1 °F 37.7 °F 34.0 °F 73% 29.98 in 10.0 mi SE 6.9 mph - N/A   Clear
9:53 AM 46.0 °F 40.6 °F 35.1 °F 66% 29.94 in 10.0 mi ESE 11.5 mph - N/A   Partly Cloudy
10:53 AM 46.0 °F 41.9 °F 39.0 °F 76% 29.91 in 3.0 mi SE 8.1 mph - 0.03 in Rain Light Rain
11:53 AM 46.0 °F 43.1 °F 39.9 °F 79% 29.88 in 6.0 mi ESE 5.8 mph - 0.01 in   Haze
12:53 PM 46.9 °F - 41.0 °F 80% 29.83 in 6.0 mi ESE 9.2 mph - N/A   Haze
1:18 PM 46.4 °F 42.9 °F 42.8 °F 87% 29.82 in 2.0 mi ESE 6.9 mph - 0.04 in Rain Rain
1:27 PM 46.4 °F 44.3 °F 42.8 °F 87% 29.81 in 1.5 mi ESE 4.6 mph - 0.09 in Rain Heavy Rain
1:38 PM 46.4 °F 42.9 °F 42.8 °F 87% 29.80 in 2.5 mi ESE 6.9 mph - 0.11 in Rain Light Rain
1:45 PM 46.4 °F - 42.8 °F 87% 29.79 in 3.0 mi North - - 0.12 in Rain Light Rain
1:53 PM 46.0 °F - 43.0 °F 89% 29.81 in 2.5 mi North - - 0.12 in Rain Light Rain
2:17 PM 46.4 °F 44.3 °F 42.8 °F 87% 29.79 in 3.0 mi Variable 4.6 mph - 0.02 in   Overcast
2:53 PM 48.0 °F - 44.1 °F 86% 29.77 in 4.0 mi ESE 6.9 mph - 0.02 in   Overcast
3:53 PM 52.0 °F - 48.0 °F 86% 29.74 in 5.0 mi SE 3.5 mph - N/A   Overcast
4:53 PM 61.0 °F - 54.0 °F 78% 29.71 in 8.0 mi SSW 8.1 mph - N/A   Mostly Cloudy
5:53 PM 66.9 °F - 54.0 °F 63% 29.72 in 10.0 mi WSW 15.0 mph 19.6 mph N/A   Mostly Cloudy
6:53 PM 66.0 °F - 50.0 °F 56% 29.76 in 10.0 mi West 24.2 mph 31.1 mph N/A   Scattered Clouds
7:53 PM 61.0 °F - 46.0 °F 58% 29.81 in 10.0 mi West 20.7 mph 35.7 mph N/A   Clear
8:53 PM 55.0 °F - 44.1 °F 67% 29.87 in 10.0 mi West 17.3 mph 21.9 mph N/A   Clear
9:53 PM 48.9 °F - 42.1 °F 77% 29.92 in 10.0 mi WNW 12.7 mph - N/A   Clear
10:53 PM 46.0 °F 41.4 °F 39.9 °F 79% 29.95 in 10.0 mi WNW 9.2 mph - N/A   Clear
11:53 PM 45.0 °F 41.2 °F 39.9 °F 82% 29.97 in 10.0 mi WNW 6.9 mph - N/A   Clear